Regional Weather Roundup
Issued by NWS Raleigh/Durham, NC

Home | Current Version | Previous Version | Text Only | Print | Product List | Glossary On
Versions: 1 2 3 4 5 6 7 8 9 10 11 12 13 14 15 16 17 18 19 20 21 22 23 24 25 26 27 28 29 30 31 32 33 34 35 36 37 38 39 40 41 42 43 44 45 46 47 48 49 50
000
ASUS42 KRAH 272310
RWRRAH
NORTH CAROLINA WEATHER ROUNDUP
NATIONAL WEATHER SERVICE RALEIGH NC
700 PM EDT TUE SEP 27 2016

NOTE: "FAIR" INDICATES FEW OR NO CLOUDS BELOW 12,000 FEET WITH NO
SIGNIFICANT WEATHER AND/OR OBSTRUCTIONS TO VISIBILITY.

NCZ001-053-055-056-065-067-280000-
WESTERN NORTH CAROLINA

CITY           SKY/WX    TMP DP  RH WIND       PRES   REMARKS
ASHEVILLE      CLOUDY    73  64  73 SW3       29.93F
JEFFERSON      NOT AVBL
MORGANTON      CLOUDY    69  66  92 CALM      29.93F
HICKORY        CLOUDY    75  70  84 S3        29.88F
RUTHERFORDTON  CLOUDY    69  69 100 S3        29.90S
MOUNT AIRY     LGT RAIN  77  71  79 CALM      29.91R
BOONE          CLEAR     69  58  68 NW6       29.99S
$$

NCZ021-022-025-041-071-084-088-280000-
CENTRAL NORTH CAROLINA

CITY           SKY/WX    TMP DP  RH WIND       PRES   REMARKS
CHARLOTTE      CLOUDY    78  69  73 W6        29.87S
GREENSBORO     MOCLDY    76  70  82 S7        29.88R
WINSTON-SALEM  MOCLDY    75  67  76 SE5       29.88F
RALEIGH-DURHAM MOCLDY    76  69  79 VRB5      29.89R
FORT BRAGG     CLOUDY    74  67  78 SE6       29.88R
FAYETTEVILLE   CLOUDY    73  68  84 SE8       29.89R
BURLINGTON     CLOUDY    74  72  93 CALM      29.88R
LAURINBURG     PTCLDY    79  72  79 SE6       29.87S
$$

NCZ011-015-027-028-043-044-047-080-103-280000-
NORTHEASTERN NORTH CAROLINA

CITY           SKY/WX    TMP DP  RH WIND       PRES   REMARKS
ROCKY MT-WILSO PTCLDY    72  72 100 CALM      29.89R
GREENVILLE     PTCLDY    73  73 100 CALM      29.91S
WASHINGTON     CLOUDY    73  72  96 CALM      29.89R
ELIZABETH CITY MOCLDY    73  70  90 NE7       29.90S
MANTEO         CLOUDY    74  68  81 SE9       29.90F
CAPE HATTERAS  CLOUDY    73  68  84 E5        29.89S
$$

NCZ078-087-090-091-093-098-101-280000-
SOUTHEASTERN NORTH CAROLINA

CITY           SKY/WX    TMP DP  RH WIND       PRES   REMARKS
LUMBERTON      CLOUDY    79  71  76 NE9       29.87R
GOLDSBORO      CLOUDY    75  74  97 SE2       29.88R
KINSTON        CLOUDY    73  72  94 CALM      29.91R
KENANSVILLE    MOCLDY    72  72 100 CALM      29.90S FOG
NEW BERN       CLOUDY    75  70  84 SE3       29.90R
CHERRY POINT   CLOUDY    76  70  82 E3        29.90R
BEAUFORT       MOCLDY    77  69  76 E6        29.88R
JACKSONVILLE   CLEAR     74  69  85 CALM      29.89R
WILMINGTON     CLEAR     75  69  81 NE3       29.90R
$$




USA.gov is the U.S. government's official web portal to all federal, state and local government web resources and services.